Location: Nandig?ma
(16.7717°N, 80.2860°E)
Time: 16:53:35
(UTC+00:00)

IRIDIUM 114 - Pass Details

Date: 03 August 2024
Orbit: 776 x 779 km, 86.4° (Epoch: 18 September)

Event Time Altitude Azimuth Distance (km) Brightness Sun altitude
Exits shadow 22:47:35 26° 187° (S) 1,494 5.5 -21.3°
Maximum altitude 22:50:35 78° 270° (W) 796 4.2 -20.7°
Drops below altitude 10° 22:55:48 10° 357° (N) 2,327 7.1 -19.5°
Sets 22:58:09 0° 359° (N) 3,255 7.9 -19.0°
